Year,Month,Day,Hour,Minute,Value (Times are PST for temperature in C)
2017,08,22,00,00,18.00
2017,08,22,00,01,18.00
2017,08,22,00,02,18.00
2017,08,22,00,03,18.00
2017,08,22,00,04,17.90
2017,08,22,00,05,18.00
2017,08,22,00,06,18.00
2017,08,22,00,07,18.00
2017,08,22,00,08,18.00
2017,08,22,00,09,18.00
2017,08,22,00,10,17.90
2017,08,22,00,11,17.90
2017,08,22,00,12,17.90
2017,08,22,00,13,17.90
2017,08,22,00,14,17.90
2017,08,22,00,15,17.90
2017,08,22,00,16,17.90
2017,08,22,00,17,17.90
2017,08,22,00,18,17.90
2017,08,22,00,19,17.90
2017,08,22,00,20,17.90
2017,08,22,00,21,17.90
2017,08,22,00,22,17.90
2017,08,22,00,23,17.90
2017,08,22,00,24,17.90
2017,08,22,00,25,17.90
2017,08,22,00,26,17.90
2017,08,22,00,27,17.90
2017,08,22,00,28,17.90
2017,08,22,00,29,17.90
2017,08,22,00,30,17.90
2017,08,22,00,31,17.90
2017,08,22,00,32,17.90
2017,08,22,00,33,17.90
2017,08,22,00,34,17.90
2017,08,22,00,35,17.90
2017,08,22,00,36,17.90
2017,08,22,00,37,17.90
2017,08,22,00,38,17.90
2017,08,22,00,39,17.90
2017,08,22,00,40,17.90
2017,08,22,00,41,17.90
2017,08,22,00,42,17.80
2017,08,22,00,43,17.80
2017,08,22,00,44,17.80
2017,08,22,00,45,17.80
2017,08,22,00,46,17.80
2017,08,22,00,47,17.80
2017,08,22,00,48,17.80
2017,08,22,00,49,17.80
2017,08,22,00,50,17.80
2017,08,22,00,51,17.80
2017,08,22,00,52,17.80
2017,08,22,00,53,17.80
2017,08,22,00,54,17.80
2017,08,22,00,55,17.80
2017,08,22,00,56,17.80
2017,08,22,00,57,17.80
2017,08,22,00,58,17.80
2017,08,22,00,59,17.80
2017,08,22,01,00,17.80
2017,08,22,01,01,17.80
2017,08,22,01,02,17.80
2017,08,22,01,03,17.80
2017,08,22,01,04,17.80
2017,08,22,01,05,17.80
2017,08,22,01,06,17.70
2017,08,22,01,07,17.70
2017,08,22,01,08,17.70
2017,08,22,01,09,17.70
2017,08,22,01,10,17.70
2017,08,22,01,11,17.70
2017,08,22,01,12,17.60
2017,08,22,01,13,17.60
2017,08,22,01,14,17.60
2017,08,22,01,15,17.60
2017,08,22,01,16,17.60
2017,08,22,01,17,17.50
2017,08,22,01,18,17.50
2017,08,22,01,19,17.50
2017,08,22,01,20,17.40
2017,08,22,01,21,17.40
2017,08,22,01,22,17.40
2017,08,22,01,23,17.40
2017,08,22,01,24,17.30
2017,08,22,01,25,17.30
2017,08,22,01,26,17.30
2017,08,22,01,27,17.30
2017,08,22,01,28,17.30
2017,08,22,01,29,17.30
2017,08,22,01,30,17.30
2017,08,22,01,31,17.20
2017,08,22,01,32,17.20
2017,08,22,01,33,17.20
2017,08,22,01,34,17.20
2017,08,22,01,35,17.20
2017,08,22,01,36,17.10
2017,08,22,01,37,17.10
2017,08,22,01,38,17.10
2017,08,22,01,39,17.10
2017,08,22,01,40,17.10
2017,08,22,01,41,17.00
2017,08,22,01,42,17.00
2017,08,22,01,43,17.00
2017,08,22,01,44,17.00
2017,08,22,01,45,17.00
2017,08,22,01,46,16.90
2017,08,22,01,47,16.90
2017,08,22,01,48,16.90
2017,08,22,01,49,16.90
2017,08,22,01,50,16.80
2017,08,22,01,51,16.80
2017,08,22,01,52,16.80
2017,08,22,01,53,16.80
2017,08,22,01,54,16.80
2017,08,22,01,55,16.70
2017,08,22,01,56,16.70
2017,08,22,01,57,16.70
2017,08,22,01,58,16.60
2017,08,22,01,59,16.60
2017,08,22,02,00,16.60
2017,08,22,02,01,16.50
2017,08,22,02,02,16.50
2017,08,22,02,03,16.40
2017,08,22,02,04,16.40
2017,08,22,02,05,16.40
2017,08,22,02,06,16.40
2017,08,22,02,07,16.40
2017,08,22,02,08,16.40
2017,08,22,02,09,16.40
2017,08,22,02,10,16.40
2017,08,22,02,11,16.40
2017,08,22,02,12,16.40
2017,08,22,02,13,16.40
2017,08,22,02,14,16.40
2017,08,22,02,15,16.40
2017,08,22,02,16,16.40
2017,08,22,02,17,16.40
2017,08,22,02,18,16.40
2017,08,22,02,19,16.40
2017,08,22,02,20,16.30
2017,08,22,02,21,16.30
2017,08,22,02,22,16.30
2017,08,22,02,23,16.30
2017,08,22,02,24,16.30
2017,08,22,02,25,16.30
2017,08,22,02,26,16.30
2017,08,22,02,27,16.30
2017,08,22,02,28,16.30
2017,08,22,02,29,16.30
2017,08,22,02,30,16.30
2017,08,22,02,31,16.40
2017,08,22,02,32,16.40
2017,08,22,02,33,16.40
2017,08,22,02,34,16.40
2017,08,22,02,35,16.40
2017,08,22,02,36,16.40
2017,08,22,02,37,16.40
2017,08,22,02,38,16.40
2017,08,22,02,39,16.40
2017,08,22,02,40,16.40
2017,08,22,02,41,16.30
2017,08,22,02,42,16.30
2017,08,22,02,43,16.30
2017,08,22,02,44,16.30
2017,08,22,02,45,16.30
2017,08,22,02,46,16.20
2017,08,22,02,47,16.20
2017,08,22,02,48,16.20
2017,08,22,02,49,16.20
2017,08,22,02,50,16.20
2017,08,22,02,51,16.20
2017,08,22,02,52,16.20
2017,08,22,02,53,16.20
2017,08,22,02,54,16.20
2017,08,22,02,55,16.20
2017,08,22,02,56,16.20
2017,08,22,02,57,16.20
2017,08,22,02,58,16.20
2017,08,22,02,59,16.20
2017,08,22,03,00,16.20
2017,08,22,03,01,16.20
2017,08,22,03,02,16.20
2017,08,22,03,03,16.20
2017,08,22,03,04,16.20
2017,08,22,03,05,16.20
2017,08,22,03,06,16.20
2017,08,22,03,07,16.20
2017,08,22,03,08,16.20
2017,08,22,03,09,16.20
2017,08,22,03,10,16.20
2017,08,22,03,11,16.20
2017,08,22,03,12,16.20
2017,08,22,03,13,16.20
2017,08,22,03,14,16.20
2017,08,22,03,15,16.20
2017,08,22,03,16,16.20
2017,08,22,03,17,16.20
2017,08,22,03,18,16.20
2017,08,22,03,19,16.20
2017,08,22,03,20,16.20
2017,08,22,03,21,16.20
2017,08,22,03,22,16.20
2017,08,22,03,23,16.20
2017,08,22,03,24,16.20
2017,08,22,03,25,16.10
2017,08,22,03,26,16.10
2017,08,22,03,27,16.10
2017,08,22,03,28,16.10
2017,08,22,03,29,16.10
2017,08,22,03,30,16.10
2017,08,22,03,31,16.10
2017,08,22,03,32,16.10
2017,08,22,03,33,16.00
2017,08,22,03,34,16.00
2017,08,22,03,35,16.00
2017,08,22,03,36,16.00
2017,08,22,03,37,16.00
2017,08,22,03,38,15.90
2017,08,22,03,39,15.90
2017,08,22,03,40,15.90
2017,08,22,03,41,15.90
2017,08,22,03,42,15.90
2017,08,22,03,43,15.90
2017,08,22,03,44,15.90
2017,08,22,03,45,15.90
2017,08,22,03,46,15.90
2017,08,22,03,47,15.90
2017,08,22,03,48,15.90
2017,08,22,03,49,15.90
2017,08,22,03,50,15.90
2017,08,22,03,51,15.80
2017,08,22,03,52,15.80
2017,08,22,03,53,15.80
2017,08,22,03,54,15.80
2017,08,22,03,55,15.80
2017,08,22,03,56,15.80
2017,08,22,03,57,15.80
2017,08,22,03,58,15.80
2017,08,22,03,59,15.80
2017,08,22,04,00,15.80
2017,08,22,04,01,15.80
2017,08,22,04,02,15.80
2017,08,22,04,03,15.80
2017,08,22,04,04,15.80
2017,08,22,04,05,15.80
2017,08,22,04,06,15.80
2017,08,22,04,07,15.80
2017,08,22,04,08,15.90
2017,08,22,04,09,15.90
2017,08,22,04,10,15.80
2017,08,22,04,11,15.80
2017,08,22,04,12,15.80
2017,08,22,04,13,15.80
2017,08,22,04,14,15.80
2017,08,22,04,15,15.80
2017,08,22,04,16,15.80
2017,08,22,04,17,15.80
2017,08,22,04,18,15.80
2017,08,22,04,19,15.80
2017,08,22,04,20,15.80
2017,08,22,04,21,15.80
2017,08,22,04,22,15.70
2017,08,22,04,23,15.70
2017,08,22,04,24,15.70
2017,08,22,04,25,15.70
2017,08,22,04,26,15.60
2017,08,22,04,27,15.60
2017,08,22,04,28,15.60
2017,08,22,04,29,15.60
2017,08,22,04,30,15.60
2017,08,22,04,31,15.60
2017,08,22,04,32,15.70
2017,08,22,04,33,15.70
2017,08,22,04,34,15.70
2017,08,22,04,35,15.70
2017,08,22,04,36,15.70
2017,08,22,04,37,15.70
2017,08,22,04,38,15.70
2017,08,22,04,39,15.70
2017,08,22,04,40,15.70
2017,08,22,04,41,15.70
2017,08,22,04,42,15.70
2017,08,22,04,43,15.70
2017,08,22,04,44,15.70
2017,08,22,04,45,15.60
2017,08,22,04,46,15.60
2017,08,22,04,47,15.60
2017,08,22,04,48,15.60
2017,08,22,04,49,15.60
2017,08,22,04,50,15.60
2017,08,22,04,51,15.60
2017,08,22,04,52,15.60
2017,08,22,04,53,15.50
2017,08,22,04,54,15.50
2017,08,22,04,55,15.50
2017,08,22,04,56,15.50
2017,08,22,04,57,15.50
2017,08,22,04,58,15.50
2017,08,22,04,59,15.50
2017,08,22,05,00,15.50
2017,08,22,05,01,15.50
2017,08,22,05,02,15.50
2017,08,22,05,03,15.50
2017,08,22,05,04,15.50
2017,08,22,05,05,15.50
2017,08,22,05,06,15.50
2017,08,22,05,07,15.50
2017,08,22,05,08,15.50
2017,08,22,05,09,15.50
2017,08,22,05,10,15.50
2017,08,22,05,11,15.40
2017,08,22,05,12,15.40
2017,08,22,05,13,15.40
2017,08,22,05,14,15.40
2017,08,22,05,15,15.40
2017,08,22,05,16,15.40
2017,08,22,05,17,15.40
2017,08,22,05,18,15.40
2017,08,22,05,19,15.40
2017,08,22,05,20,15.40
2017,08,22,05,21,15.40
2017,08,22,05,22,15.40
2017,08,22,05,23,15.40
2017,08,22,05,24,15.40
2017,08,22,05,25,15.30
2017,08,22,05,26,15.30
2017,08,22,05,27,15.30
2017,08,22,05,28,15.30
2017,08,22,05,29,15.30
2017,08,22,05,30,15.30
2017,08,22,05,31,15.30
2017,08,22,05,32,15.30
2017,08,22,05,33,15.30
2017,08,22,05,34,15.30
2017,08,22,05,35,15.30
2017,08,22,05,36,15.30
2017,08,22,05,37,15.30
2017,08,22,05,38,15.30
2017,08,22,05,39,15.30
2017,08,22,05,40,15.30
2017,08,22,05,41,15.30
2017,08,22,05,42,15.30
2017,08,22,05,43,15.30
2017,08,22,05,44,15.30
2017,08,22,05,45,15.30
2017,08,22,05,46,15.30
2017,08,22,05,47,15.30
2017,08,22,05,48,15.30
2017,08,22,05,49,15.40
2017,08,22,05,50,15.40
2017,08,22,05,51,15.40
2017,08,22,05,52,15.40
2017,08,22,05,53,15.30
2017,08,22,05,54,15.30
2017,08,22,05,55,15.40
2017,08,22,05,56,15.30
2017,08,22,05,57,15.30
2017,08,22,05,58,15.30
2017,08,22,05,59,15.30
2017,08,22,06,00,15.30
2017,08,22,06,01,15.30
2017,08,22,06,02,15.30
2017,08,22,06,03,15.30
2017,08,22,06,04,15.30
2017,08,22,06,05,15.30
2017,08,22,06,06,15.20
2017,08,22,06,07,15.20
2017,08,22,06,08,15.20
2017,08,22,06,09,15.20
2017,08,22,06,10,15.20
2017,08,22,06,11,15.20
2017,08,22,06,12,15.20
2017,08,22,06,13,15.20
2017,08,22,06,14,15.20
2017,08,22,06,15,15.20
2017,08,22,06,16,15.20
2017,08,22,06,17,15.20
2017,08,22,06,18,15.20
2017,08,22,06,19,15.20
2017,08,22,06,20,15.20
2017,08,22,06,21,15.20
2017,08,22,06,22,15.30
2017,08,22,06,23,15.30
2017,08,22,06,24,15.30
2017,08,22,06,25,15.30
2017,08,22,06,26,15.20
2017,08,22,06,27,15.20
2017,08,22,06,28,15.20
2017,08,22,06,29,15.20
2017,08,22,06,30,15.20
2017,08,22,06,31,15.20
2017,08,22,06,32,15.20
2017,08,22,06,33,15.20
2017,08,22,06,34,15.20
2017,08,22,06,35,15.20
2017,08,22,06,36,15.10
2017,08,22,06,37,15.10
2017,08,22,06,38,15.10
2017,08,22,06,39,15.10
2017,08,22,06,40,15.00
2017,08,22,06,41,15.00
2017,08,22,06,42,15.00
2017,08,22,06,43,15.10
2017,08,22,06,44,15.10
2017,08,22,06,45,15.10
2017,08,22,06,46,15.10
2017,08,22,06,47,15.00
2017,08,22,06,48,15.00
2017,08,22,06,49,15.00
2017,08,22,06,50,15.00
2017,08,22,06,51,15.00
2017,08,22,06,52,15.00
2017,08,22,06,53,15.00
2017,08,22,06,54,15.00
2017,08,22,06,55,15.10
2017,08,22,06,56,15.10
2017,08,22,06,57,15.10
2017,08,22,06,58,15.10
2017,08,22,06,59,15.10
2017,08,22,07,00,15.10
2017,08,22,07,01,15.10
2017,08,22,07,02,15.10
2017,08,22,07,03,15.10
2017,08,22,07,04,15.10
2017,08,22,07,05,15.10
2017,08,22,07,06,15.10
2017,08,22,07,07,15.10
2017,08,22,07,08,15.10
2017,08,22,07,09,15.10
2017,08,22,07,10,15.10
2017,08,22,07,11,15.10
2017,08,22,07,12,15.10
2017,08,22,07,13,15.10
2017,08,22,07,14,15.10
2017,08,22,07,15,15.10
2017,08,22,07,16,15.10
2017,08,22,07,17,15.20
2017,08,22,07,18,15.20
2017,08,22,07,19,15.20
2017,08,22,07,20,15.20
2017,08,22,07,21,15.30
2017,08,22,07,22,15.30
2017,08,22,07,23,15.30
2017,08,22,07,24,15.30
2017,08,22,07,25,15.30
2017,08,22,07,26,15.30
2017,08,22,07,27,15.30
2017,08,22,07,28,15.30
2017,08,22,07,29,15.40
2017,08,22,07,30,15.40
2017,08,22,07,31,15.40
2017,08,22,07,32,15.40
2017,08,22,07,33,15.40
2017,08,22,07,34,15.50
2017,08,22,07,35,15.50
2017,08,22,07,36,15.50
2017,08,22,07,37,15.60
2017,08,22,07,38,15.60
2017,08,22,07,39,15.60
2017,08,22,07,40,15.60
2017,08,22,07,41,15.60
2017,08,22,07,42,15.70
2017,08,22,07,43,15.70
2017,08,22,07,44,15.70
2017,08,22,07,45,15.70
2017,08,22,07,46,15.70
2017,08,22,07,47,15.80
2017,08,22,07,48,15.80
2017,08,22,07,49,15.80
2017,08,22,07,50,15.80
2017,08,22,07,51,15.90
2017,08,22,07,52,15.90
2017,08,22,07,53,15.90
2017,08,22,07,54,15.90
2017,08,22,07,55,15.90
2017,08,22,07,56,16.00
2017,08,22,07,57,16.00
2017,08,22,07,58,16.10
2017,08,22,07,59,16.10
2017,08,22,08,00,16.10
2017,08,22,08,01,16.20
2017,08,22,08,02,16.20
2017,08,22,08,03,16.20
2017,08,22,08,04,16.30
2017,08,22,08,05,16.30
2017,08,22,08,06,16.30
2017,08,22,08,07,16.40
2017,08,22,08,08,16.40
2017,08,22,08,09,16.40
2017,08,22,08,10,16.50
2017,08,22,08,11,16.50
2017,08,22,08,12,16.50
2017,08,22,08,13,16.60
2017,08,22,08,14,16.60
2017,08,22,08,15,16.70
2017,08,22,08,16,16.70
2017,08,22,08,17,16.70
2017,08,22,08,18,16.80
2017,08,22,08,19,16.80
2017,08,22,08,20,16.90
2017,08,22,08,21,16.90
2017,08,22,08,22,16.90
2017,08,22,08,23,17.00
2017,08,22,08,24,17.10
2017,08,22,08,25,17.10
2017,08,22,08,26,17.20
2017,08,22,08,27,17.20
2017,08,22,08,28,17.30
2017,08,22,08,29,17.30
2017,08,22,08,30,17.30
2017,08,22,08,31,17.40
2017,08,22,08,32,17.40
2017,08,22,08,33,17.50
2017,08,22,08,34,17.50
2017,08,22,08,35,17.60
2017,08,22,08,36,17.60
2017,08,22,08,37,17.60
2017,08,22,08,38,17.70
2017,08,22,08,39,17.70
2017,08,22,08,40,17.70
2017,08,22,08,41,17.80
2017,08,22,08,42,17.80
2017,08,22,08,43,17.90
2017,08,22,08,44,18.00
2017,08,22,08,45,18.00
2017,08,22,08,46,18.10
2017,08,22,08,47,18.20
2017,08,22,08,48,18.20
2017,08,22,08,49,18.30
2017,08,22,08,50,18.40
2017,08,22,08,51,18.50
2017,08,22,08,52,18.50
2017,08,22,08,53,18.60
2017,08,22,08,54,18.70
2017,08,22,08,55,18.80
2017,08,22,08,56,18.90
2017,08,22,08,57,19.00
2017,08,22,08,58,19.20
2017,08,22,08,59,19.30
2017,08,22,09,00,19.40
2017,08,22,09,01,19.50
2017,08,22,09,02,19.50
2017,08,22,09,03,19.60
2017,08,22,09,04,19.70
2017,08,22,09,05,19.80
2017,08,22,09,06,19.80
2017,08,22,09,07,19.90
2017,08,22,09,08,20.00
2017,08,22,09,09,20.00
2017,08,22,09,10,20.10
2017,08,22,09,11,20.10
2017,08,22,09,12,20.20
2017,08,22,09,13,20.20
2017,08,22,09,14,20.30
2017,08,22,09,15,20.40
2017,08,22,09,16,20.40
2017,08,22,09,17,20.50
2017,08,22,09,18,20.60
2017,08,22,09,19,20.60
2017,08,22,09,20,20.60
2017,08,22,09,21,20.70
2017,08,22,09,22,20.70
2017,08,22,09,23,20.70
2017,08,22,09,24,20.70
2017,08,22,09,25,20.80
2017,08,22,09,26,20.80
2017,08,22,09,27,20.90
2017,08,22,09,28,20.90
2017,08,22,09,29,21.00
2017,08,22,09,30,21.10
2017,08,22,09,31,21.20
2017,08,22,09,32,21.20
2017,08,22,09,33,21.30
2017,08,22,09,34,21.40
2017,08,22,09,35,21.50
2017,08,22,09,36,21.60
2017,08,22,09,37,21.70
2017,08,22,09,38,21.80
2017,08,22,09,39,21.90
2017,08,22,09,40,22.00
2017,08,22,09,41,22.10
2017,08,22,09,42,22.20
2017,08,22,09,43,22.30
2017,08,22,09,44,22.50
2017,08,22,09,45,22.70
2017,08,22,09,46,22.80
2017,08,22,09,47,22.90
2017,08,22,09,48,23.00
2017,08,22,09,49,23.20
2017,08,22,09,50,23.30
2017,08,22,09,51,23.50
2017,08,22,09,52,23.60
2017,08,22,09,53,23.70
2017,08,22,09,54,23.80
2017,08,22,09,55,23.90
2017,08,22,09,56,23.90
2017,08,22,09,57,24.00
2017,08,22,09,58,24.10
2017,08,22,09,59,24.10
2017,08,22,10,00,24.20
2017,08,22,10,01,24.20
2017,08,22,10,02,24.20
2017,08,22,10,03,24.20
2017,08,22,10,04,24.20
2017,08,22,10,05,24.20
2017,08,22,10,06,24.10
2017,08,22,10,07,24.10
2017,08,22,10,08,24.10
2017,08,22,10,09,24.10
2017,08,22,10,10,24.10
2017,08,22,10,11,24.20
2017,08,22,10,12,24.20
2017,08,22,10,13,24.30
2017,08,22,10,14,24.30
2017,08,22,10,15,24.30
2017,08,22,10,16,24.40
2017,08,22,10,17,24.40
2017,08,22,10,18,24.40
2017,08,22,10,19,24.40
2017,08,22,10,20,24.40
2017,08,22,10,21,24.50
2017,08,22,10,22,24.50
2017,08,22,10,23,24.50
2017,08,22,10,24,24.50
2017,08,22,10,25,24.60
2017,08,22,10,26,24.60
2017,08,22,10,27,24.70
2017,08,22,10,28,24.80
2017,08,22,10,29,24.80
2017,08,22,10,30,24.90
2017,08,22,10,31,25.00
2017,08,22,10,32,25.00
2017,08,22,10,33,25.10
2017,08,22,10,34,25.10
2017,08,22,10,35,25.10
2017,08,22,10,36,25.00
2017,08,22,10,37,25.00
2017,08,22,10,38,24.90
2017,08,22,10,39,24.90
2017,08,22,10,40,24.90
2017,08,22,10,41,25.00
2017,08,22,10,42,25.00
2017,08,22,10,43,25.10
2017,08,22,10,44,25.20
2017,08,22,10,45,25.20
2017,08,22,10,46,25.30
2017,08,22,10,47,25.40
2017,08,22,10,48,25.40
2017,08,22,10,49,25.50
2017,08,22,10,50,25.50
2017,08,22,10,51,25.60
2017,08,22,10,52,25.70
2017,08,22,10,53,25.70
2017,08,22,10,54,25.70
2017,08,22,10,55,25.70
2017,08,22,10,56,25.60
2017,08,22,10,57,25.60
2017,08,22,10,58,25.60
2017,08,22,10,59,25.60
2017,08,22,11,00,25.60
2017,08,22,11,01,25.60
2017,08,22,11,02,25.60
2017,08,22,11,03,25.70
2017,08,22,11,04,25.70
2017,08,22,11,05,25.80
2017,08,22,11,06,25.80
2017,08,22,11,07,25.90
2017,08,22,11,08,25.90
2017,08,22,11,09,25.90
2017,08,22,11,10,25.90
2017,08,22,11,11,25.90
2017,08,22,11,12,25.90
2017,08,22,11,13,25.90
2017,08,22,11,14,25.90
2017,08,22,11,15,25.90
2017,08,22,11,16,25.90
2017,08,22,11,17,25.90
2017,08,22,11,18,25.90
2017,08,22,11,19,25.90
2017,08,22,11,20,25.90
2017,08,22,11,21,25.90
2017,08,22,11,22,25.90
2017,08,22,11,23,25.90
2017,08,22,11,24,26.00
2017,08,22,11,25,26.00
2017,08,22,11,26,26.10
2017,08,22,11,27,26.20
2017,08,22,11,28,26.20
2017,08,22,11,29,26.30
2017,08,22,11,30,26.30
2017,08,22,11,31,26.30
2017,08,22,11,32,26.30
2017,08,22,11,33,26.20
2017,08,22,11,34,26.20
2017,08,22,11,35,26.20
2017,08,22,11,36,26.20
2017,08,22,11,37,26.20
2017,08,22,11,38,26.30
2017,08,22,11,39,26.30
2017,08,22,11,40,26.30
2017,08,22,11,41,26.30
2017,08,22,11,42,26.30
2017,08,22,11,43,26.40
2017,08,22,11,44,26.40
2017,08,22,11,45,26.50
2017,08,22,11,46,26.50
2017,08,22,11,47,26.60
2017,08,22,11,48,26.70
2017,08,22,11,49,26.70
2017,08,22,11,50,26.80
2017,08,22,11,51,26.90
2017,08,22,11,52,26.90
2017,08,22,11,53,27.00
2017,08,22,11,54,27.00
2017,08,22,11,55,27.00
2017,08,22,11,56,27.00
2017,08,22,11,57,26.90
2017,08,22,11,58,26.90
2017,08,22,11,59,26.90
2017,08,22,12,00,26.90
2017,08,22,12,01,26.90
2017,08,22,12,02,26.80
2017,08,22,12,03,26.80
2017,08,22,12,04,26.80
2017,08,22,12,05,26.80
2017,08,22,12,06,26.80
2017,08,22,12,07,26.80
2017,08,22,12,08,26.80
2017,08,22,12,09,26.80
2017,08,22,12,10,26.80
2017,08,22,12,11,26.80
2017,08,22,12,12,26.90
2017,08,22,12,13,26.90
2017,08,22,12,14,27.00
2017,08,22,12,15,27.00
2017,08,22,12,16,27.10
2017,08,22,12,17,27.10
2017,08,22,12,18,27.00
2017,08,22,12,19,27.00
2017,08,22,12,20,27.00
2017,08,22,12,21,26.90
2017,08,22,12,22,27.00
2017,08,22,12,23,27.00
2017,08,22,12,24,27.10
2017,08,22,12,25,27.10
2017,08,22,12,26,27.10
2017,08,22,12,27,27.10
2017,08,22,12,28,27.00
2017,08,22,12,29,27.00
2017,08,22,12,30,26.90
2017,08,22,12,31,26.80
2017,08,22,12,32,26.80
2017,08,22,12,33,26.80
2017,08,22,12,34,26.70
2017,08,22,12,35,26.60
2017,08,22,12,36,26.50
2017,08,22,12,37,26.40
2017,08,22,12,38,26.30
2017,08,22,12,39,26.20
2017,08,22,12,40,26.20
2017,08,22,12,41,26.20
2017,08,22,12,42,26.30
2017,08,22,12,43,26.40
2017,08,22,12,44,26.50
2017,08,22,12,45,26.60
2017,08,22,12,46,26.60
2017,08,22,12,47,26.60
2017,08,22,12,48,26.60
2017,08,22,12,49,26.60
2017,08,22,12,50,26.70
2017,08,22,12,51,26.70
2017,08,22,12,52,26.80
2017,08,22,12,53,26.90
2017,08,22,12,54,26.90
2017,08,22,12,55,26.90
2017,08,22,12,56,26.90
2017,08,22,12,57,26.80
2017,08,22,12,58,26.80
2017,08,22,12,59,26.80
2017,08,22,13,00,26.80
2017,08,22,13,01,26.90
2017,08,22,13,02,26.90
2017,08,22,13,03,27.00
2017,08,22,13,04,27.00
2017,08,22,13,05,27.10
2017,08,22,13,06,27.00
2017,08,22,13,07,27.00
2017,08,22,13,08,27.00
2017,08,22,13,09,27.10
2017,08,22,13,10,27.10
2017,08,22,13,11,27.10
2017,08,22,13,12,27.20
2017,08,22,13,13,27.20
2017,08,22,13,14,27.20
2017,08,22,13,15,27.30
2017,08,22,13,16,27.30
2017,08,22,13,17,27.30
2017,08,22,13,18,27.30
2017,08,22,13,19,27.30
2017,08,22,13,20,27.30
2017,08,22,13,21,27.30
2017,08,22,13,22,27.30
2017,08,22,13,23,27.30
2017,08,22,13,24,27.30
2017,08,22,13,25,27.30
2017,08,22,13,26,27.30
2017,08,22,13,27,27.30
2017,08,22,13,28,27.30
2017,08,22,13,29,27.30
2017,08,22,13,30,27.30
2017,08,22,13,31,27.40
2017,08,22,13,32,27.40
2017,08,22,13,33,27.40
2017,08,22,13,34,27.40
2017,08,22,13,35,27.40
2017,08,22,13,36,27.40
2017,08,22,13,37,27.40
2017,08,22,13,38,27.40
2017,08,22,13,39,27.50
2017,08,22,13,40,27.50
2017,08,22,13,41,27.50
2017,08,22,13,42,27.40
2017,08,22,13,43,27.40
2017,08,22,13,44,27.40
2017,08,22,13,45,27.50
2017,08,22,13,46,27.50
2017,08,22,13,47,27.50
2017,08,22,13,48,27.50
2017,08,22,13,49,27.50
2017,08,22,13,50,27.60
2017,08,22,13,51,27.60
2017,08,22,13,52,27.60
2017,08,22,13,53,27.60
2017,08,22,13,54,27.60
2017,08,22,13,55,27.60
2017,08,22,13,56,27.50
2017,08,22,13,57,27.40
2017,08,22,13,58,27.40
2017,08,22,13,59,27.40
2017,08,22,14,00,27.40
2017,08,22,14,01,27.40
2017,08,22,14,02,27.40
2017,08,22,14,03,27.40
2017,08,22,14,04,27.40
2017,08,22,14,05,27.40
2017,08,22,14,06,27.40
2017,08,22,14,07,27.40
2017,08,22,14,08,27.40
2017,08,22,14,09,27.40
2017,08,22,14,10,27.30
2017,08,22,14,11,27.30
2017,08,22,14,12,27.30
2017,08,22,14,13,27.30
2017,08,22,14,14,27.30
2017,08,22,14,15,27.30
2017,08,22,14,16,27.30
2017,08,22,14,17,27.40
2017,08,22,14,18,27.40
2017,08,22,14,19,27.40
2017,08,22,14,20,27.40
2017,08,22,14,21,27.40
2017,08,22,14,22,27.30
2017,08,22,14,23,27.30
2017,08,22,14,24,27.30
2017,08,22,14,25,27.30
2017,08,22,14,26,27.40
2017,08,22,14,27,27.40
2017,08,22,14,28,27.40
2017,08,22,14,29,27.40
2017,08,22,14,30,27.40
2017,08,22,14,31,27.40
2017,08,22,14,32,27.40
2017,08,22,14,33,27.40
2017,08,22,14,34,27.40
2017,08,22,14,35,27.40
2017,08,22,14,36,27.40
2017,08,22,14,37,27.40
2017,08,22,14,38,27.40
2017,08,22,14,39,27.30
2017,08,22,14,40,27.30
2017,08,22,14,41,27.30
2017,08,22,14,42,27.30
2017,08,22,14,43,27.30
2017,08,22,14,44,27.30
2017,08,22,14,45,27.30
2017,08,22,14,46,27.30
2017,08,22,14,47,27.40
2017,08,22,14,48,27.40
2017,08,22,14,49,27.50
2017,08,22,14,50,27.50
2017,08,22,14,51,27.50
2017,08,22,14,52,27.60
2017,08,22,14,53,27.60
2017,08,22,14,54,27.70
2017,08,22,14,55,27.70
2017,08,22,14,56,27.70
2017,08,22,14,57,27.80
2017,08,22,14,58,27.80
2017,08,22,14,59,27.80
2017,08,22,15,00,27.90
2017,08,22,15,01,27.90
2017,08,22,15,02,27.90
2017,08,22,15,03,27.90
2017,08,22,15,04,27.90
2017,08,22,15,05,27.90
2017,08,22,15,06,27.80
2017,08,22,15,07,27.80
2017,08,22,15,08,27.80
2017,08,22,15,09,27.80
2017,08,22,15,10,27.80
2017,08,22,15,11,27.80
2017,08,22,15,12,27.80
2017,08,22,15,13,27.80
2017,08,22,15,14,27.90
2017,08,22,15,15,27.90
2017,08,22,15,16,27.90
2017,08,22,15,17,27.90
2017,08,22,15,18,27.90
2017,08,22,15,19,27.90
2017,08,22,15,20,27.80
2017,08,22,15,21,27.70
2017,08,22,15,22,27.70
2017,08,22,15,23,27.50
2017,08,22,15,24,27.40
2017,08,22,15,25,27.30
2017,08,22,15,26,27.30
2017,08,22,15,27,27.20
2017,08,22,15,28,27.20
2017,08,22,15,29,27.20
2017,08,22,15,30,27.20
2017,08,22,15,31,27.10
2017,08,22,15,32,27.10
2017,08,22,15,33,27.10
2017,08,22,15,34,27.10
2017,08,22,15,35,27.10
2017,08,22,15,36,27.20
2017,08,22,15,37,27.20
2017,08,22,15,38,27.20
2017,08,22,15,39,27.20
2017,08,22,15,40,27.20
2017,08,22,15,41,27.30
2017,08,22,15,42,27.30
2017,08,22,15,43,27.40
2017,08,22,15,44,27.50
2017,08,22,15,45,27.50
2017,08,22,15,46,27.60
2017,08,22,15,47,27.70
2017,08,22,15,48,27.70
2017,08,22,15,49,27.70
2017,08,22,15,50,27.80
2017,08,22,15,51,27.80
2017,08,22,15,52,27.80
2017,08,22,15,53,27.80
2017,08,22,15,54,27.80
2017,08,22,15,55,27.90
2017,08,22,15,56,27.90
2017,08,22,15,57,27.90
2017,08,22,15,58,28.00
2017,08,22,15,59,28.00
2017,08,22,16,00,28.10
2017,08,22,16,01,28.10
2017,08,22,16,02,28.10
2017,08,22,16,03,28.20
2017,08,22,16,04,28.20
2017,08,22,16,05,28.20
2017,08,22,16,06,28.20
2017,08,22,16,07,28.20
2017,08,22,16,08,28.20
2017,08,22,16,09,28.30
2017,08,22,16,10,28.30
2017,08,22,16,11,28.30
2017,08,22,16,12,28.20
2017,08,22,16,13,28.20
2017,08,22,16,14,28.20
2017,08,22,16,15,28.20
2017,08,22,16,16,28.20
2017,08,22,16,17,28.20
2017,08,22,16,18,28.20
2017,08,22,16,19,28.20
2017,08,22,16,20,28.20
2017,08,22,16,21,28.20
2017,08,22,16,22,28.20
2017,08,22,16,23,28.20
2017,08,22,16,24,28.20
2017,08,22,16,25,28.20
2017,08,22,16,26,28.20
2017,08,22,16,27,28.20
2017,08,22,16,28,28.30
2017,08,22,16,29,28.30
2017,08,22,16,30,28.30
2017,08,22,16,31,28.40
2017,08,22,16,32,28.40
2017,08,22,16,33,28.40
2017,08,22,16,34,28.50
2017,08,22,16,35,28.50
2017,08,22,16,36,28.60
2017,08,22,16,37,28.70
2017,08,22,16,38,28.70
2017,08,22,16,39,28.70
2017,08,22,16,40,28.80
2017,08,22,16,41,28.80
2017,08,22,16,42,28.90
2017,08,22,16,43,29.00
2017,08,22,16,44,29.00
2017,08,22,16,45,29.10
2017,08,22,16,46,29.10
2017,08,22,16,47,29.10
2017,08,22,16,48,29.20
2017,08,22,16,49,29.20
2017,08,22,16,50,29.20
2017,08,22,16,51,29.10
2017,08,22,16,52,29.00
2017,08,22,16,53,28.90
2017,08,22,16,54,28.80
2017,08,22,16,55,28.80
2017,08,22,16,56,28.80
2017,08,22,16,57,28.80
2017,08,22,16,58,28.80
2017,08,22,16,59,28.80
2017,08,22,17,00,28.80
2017,08,22,17,01,28.80
2017,08,22,17,02,28.80
2017,08,22,17,03,28.80
2017,08,22,17,04,28.80
2017,08,22,17,05,28.80
2017,08,22,17,06,28.80
2017,08,22,17,07,28.80
2017,08,22,17,08,28.80
2017,08,22,17,09,28.80
2017,08,22,17,10,28.80
2017,08,22,17,11,28.90
2017,08,22,17,12,29.00
2017,08,22,17,13,29.10
2017,08,22,17,14,29.10
2017,08,22,17,15,29.20
2017,08,22,17,16,29.30
2017,08,22,17,17,29.30
2017,08,22,17,18,29.30
2017,08,22,17,19,29.40